Change the Weather History Date:

Tuesday, April 9, 2013

  Actual Average Record
Temperature  
Mean Temperature 31 °F 47 °F  
Max Temperature 42 °F 62 °F 95 °F (1930)
Min Temperature 20 °F 32 °F 15 °F (1982)
Degree Days  
Heating Degree Days 30    
Moisture  
Dew Point 23 °F    
Average Humidity 86    
Maximum Humidity 93    
Minimum Humidity 78    
Precipitation  
Precipitation 0.07 in 0.07 in 1.28 in (1961)
Month to date precipitation 0.75 0.51  
Year to date precipitation 2.59 3.00  
Sea Level Pressure  
Sea Level Pressure 29.91 in    
Wind  
Wind Speed 25 mph (North)    
Max Wind Speed 62 mph    
Max Gust Speed 59 mph    
Visibility 4 miles    
Events Fog , Rain , Snow , Thunderstorm    
T = Trace of Precipitation, MM = Missing Value Source: NWS Daily Summary

Daily Weather History Graph

Daily Weather History Graph

Search for Another Location

Airport or City:

Trip Planner

Search our weather history database for the weather conditions in past years. The results will help you decide how hot, cold, wet, or windy it might be!

Date:

Astronomy

Apr. 09, 2013 Rise Set
Actual Time 7:13 AM CDT 8:15 PM CDT
Civil Twilight 6:45 AM CDT 8:43 PM CDT
Nautical Twilight 6:12 AM CDT 9:16 PM CDT
Astronomical Twilight 5:37 AM CDT 9:50 PM CDT
Moon 6:36 AM CDT (4/9) 7:52 PM CDT (4/9)
Length of Visible Light 13h 57m
Length of Day
13h 02m
Waning Crescent, 1% of the Moon is Illuminated
Apr 9
Waning Crescent
Apr 10
New
Apr 18
First Quarter
Apr 25
Full
May 2
Last Quarter

Hourly Weather History & Observations

Time (CDT) Temp. Windchill Dew Point Humidity Pressure Visibility Wind Dir Wind Speed Gust Speed Precip Events Conditions
12:04 AM 51.8 °F - 46.4 °F 82% 29.51 in 2.0 mi ENE 12.7 mph 27.6 mph 0.05 in Rain , Thunderstorm Heavy Thunderstorms and Rain
12:26 AM 48.2 °F - 44.6 °F 87% 29.56 in 1.8 mi North 16.1 mph 24.2 mph 0.17 in Rain , Thunderstorm Heavy Thunderstorms and Rain
12:53 AM 42.1 °F 31.3 °F 39.9 °F 92% 29.53 in 2.0 mi North 29.9 mph 40.3 mph 0.60 in Rain , Thunderstorm Heavy Thunderstorms and Rain
12:59 AM 42.8 °F 33.1 °F 39.2 °F 87% 29.56 in 3.0 mi NNE 25.3 mph 40.3 mph 0.03 in Rain , Thunderstorm Thunderstorms and Rain
1:09 AM 41.0 °F 29.8 °F 37.4 °F 87% 29.54 in 6.0 mi NNE 29.9 mph 35.7 mph 0.04 in Rain , Thunderstorm Light Rain
1:35 AM 39.2 °F 27.8 °F 35.6 °F 87% 29.52 in 10.0 mi NE 27.6 mph 40.3 mph 0.04 in   Overcast
1:49 AM 41.0 °F 28.2 °F 37.4 °F 87% 29.67 in 10.0 mi NW 41.4 mph 57.5 mph 0.04 in Thunderstorm Overcast
1:53 AM 41.0 °F 28.6 °F 36.0 °F 82% 29.54 in 10.0 mi NNE 38.0 mph 57.5 mph 0.04 in Thunderstorm Overcast
2:00 AM 41.0 °F 28.6 °F 35.6 °F 81% 29.54 in 9.0 mi NE 38.0 mph 55.2 mph 0.01 in Rain , Thunderstorm Light Thunderstorms and Rain
2:09 AM 41.0 °F 29.5 °F 37.4 °F 87% 29.55 in 9.0 mi NNE 32.2 mph 43.7 mph 0.02 in Rain Light Rain
2:20 AM 39.2 °F 26.8 °F 35.6 °F 87% 29.59 in 10.0 mi NE 33.4 mph 43.7 mph 0.02 in Rain , Thunderstorm Light Rain
2:28 AM 41.0 °F 28.5 °F 37.4 °F 87% 29.66 in 10.0 mi NW 39.1 mph 58.7 mph 0.02 in Thunderstorm Unknown
2:53 AM 39.0 °F 28.5 °F 36.0 °F 89% 29.65 in 10.0 mi North 23.0 mph 46.0 mph 0.04 in Rain , Thunderstorm Light Thunderstorms and Rain
3:12 AM 37.4 °F 24.8 °F 35.6 °F 93% 29.60 in 10.0 mi NNE 31.1 mph 41.4 mph 0.00 in Rain Light Rain
3:53 AM 37.9 °F 26.3 °F 34.0 °F 86% 29.63 in 10.0 mi NE 26.5 mph 34.5 mph 0.00 in   Overcast
4:13 AM 37.4 °F 27.5 °F 33.8 °F 87% 29.66 in 10.0 mi NNE 18.4 mph 25.3 mph N/A   Overcast
4:53 AM 37.0 °F 26.7 °F 34.0 °F 89% 29.70 in 10.0 mi North 19.6 mph 26.5 mph N/A   Overcast
5:50 AM 35.6 °F 22.7 °F 33.8 °F 93% 29.74 in 9.0 mi North 28.8 mph 35.7 mph N/A   Overcast
5:53 AM 35.1 °F 22.0 °F 32.0 °F 89% 29.74 in 9.0 mi North 28.8 mph 35.7 mph N/A   Overcast
6:53 AM 28.9 °F 13.5 °F 26.1 °F 89% 29.82 in 3.0 mi NNW 29.9 mph 38.0 mph 0.00 in Snow Light Snow
7:01 AM 28.4 °F 13.0 °F 24.8 °F 86% 29.81 in 2.5 mi North 28.8 mph 35.7 mph 0.00 in Snow Light Snow
7:19 AM 26.6 °F 10.6 °F 24.8 °F 93% 29.83 in 3.0 mi North 28.8 mph 39.1 mph 0.00 in Snow Light Snow
7:43 AM 24.8 °F 7.9 °F 21.2 °F 86% 29.85 in 5.0 mi North 29.9 mph 38.0 mph 0.00 in Rain Light Freezing Rain
7:53 AM 25.0 °F 9.2 °F 21.0 °F 85% 29.88 in 5.0 mi North 25.3 mph 36.8 mph 0.00 in Rain Light Freezing Rain
8:24 AM 24.8 °F 9.6 °F 21.2 °F 86% 29.88 in 2.0 mi North 23.0 mph 35.7 mph 0.00 in Snow Light Snow
8:32 AM 23.0 °F 6.0 °F 19.4 °F 86% 29.88 in 1.5 mi North 27.6 mph 33.4 mph 0.00 in Snow Light Snow
8:53 AM 21.9 °F 4.2 °F 19.0 °F 89% 29.92 in 1.5 mi North 28.8 mph 38.0 mph 0.00 in Snow Light Snow
9:12 AM 21.2 °F 3.3 °F 19.4 °F 93% 29.89 in 1.5 mi North 28.8 mph 33.4 mph 0.00 in Rain Light Freezing Rain
9:53 AM 21.0 °F -3.0 °F 18.0 °F 88% 29.94 in 1.8 mi NNW 62.1 mph 181.8 mph 0.00 in Rain Light Freezing Rain
10:11 AM 21.2 °F - 17.6 °F 86% 29.91 in 2.0 mi North - - 0.00 in Rain Light Freezing Rain
10:30 AM 21.2 °F - 17.6 °F 86% 29.95 in 3.0 mi North - - 0.00 in Rain Light Freezing Rain
10:53 AM 21.0 °F - 18.0 °F 88% 29.98 in 2.5 mi North - - 0.00 in Rain Light Freezing Rain
11:21 AM 21.2 °F - 17.6 °F 86% 29.93 in 3.0 mi North - - 0.00 in Rain Light Freezing Rain
11:35 AM 21.2 °F - 17.6 °F 86% 29.94 in 4.0 mi North - - 0.00 in   Mist
11:53 AM 21.9 °F - 18.0 °F 85% 30.03 in 2.5 mi North - - 0.00 in   Mist
12:10 PM 23.0 °F - 19.4 °F 86% 30.00 in 2.0 mi North - - 0.00 in Snow Light Snow
12:17 PM 23.0 °F - 19.4 °F 86% 29.99 in 1.2 mi North - - 0.00 in Snow Light Snow
12:40 PM 21.2 °F - 19.4 °F 93% 29.96 in 0.8 mi North - - 0.00 in Snow Blowing Snow
12:53 PM 21.9 °F - 19.0 °F 89% 30.04 in 0.8 mi North - - 0.01 in Snow Light Snow
1:06 PM 21.2 °F - 17.6 °F 86% 29.96 in 1.2 mi North - - 0.00 in   Overcast
1:32 PM 23.0 °F 8.3 °F 19.4 °F 86% 29.98 in 2.5 mi NNW 19.6 mph 32.2 mph 0.00 in   Overcast
1:44 PM 21.2 °F 6.8 °F 17.6 °F 86% 29.99 in 1.8 mi NNW 17.3 mph 27.6 mph 0.00 in Snow Light Snow
1:49 PM 21.2 °F 5.6 °F 17.6 °F 86% 29.99 in 3.0 mi NNW 20.7 mph 27.6 mph 0.00 in   Overcast
1:53 PM 21.9 °F 6.9 °F 18.0 °F 85% 30.06 in 4.0 mi NNW 19.6 mph 26.5 mph 0.00 in   Overcast
2:22 PM 21.2 °F 5.6 °F 17.6 °F 86% 30.01 in 3.0 mi NNW 20.7 mph - 0.00 in Thunderstorm Overcast
2:27 PM 21.2 °F 6.0 °F 17.6 °F 86% 30.00 in 1.8 mi NNW 19.6 mph - 0.00 in Thunderstorm Overcast
2:33 PM 21.2 °F 4.5 °F 17.6 °F 86% 29.96 in 0.8 mi North 24.2 mph - 0.00 in Snow Light Snow
2:42 PM 21.2 °F 5.6 °F 17.6 °F 86% 29.97 in 0.5 mi North 20.7 mph - 0.00 in Fog Light Freezing Fog
2:49 PM 21.2 °F 5.6 °F 17.6 °F 86% 29.96 in 0.8 mi North 20.7 mph 28.8 mph 0.01 in   Mist
2:53 PM 21.9 °F 5.5 °F 19.0 °F 89% 30.03 in 1.0 mi North 24.2 mph 28.8 mph 0.01 in   Mist
3:23 PM 23.0 °F 7.6 °F 19.4 °F 86% 29.98 in 2.5 mi NNW 21.9 mph - 0.00 in   Overcast
3:31 PM 23.0 °F 7.2 °F 19.4 °F 86% 29.98 in 1.5 mi North 23.0 mph 28.8 mph 0.00 in   Overcast
3:53 PM 21.9 °F 6.2 °F 18.0 °F 85% 30.07 in 1.5 mi NNW 21.9 mph - 0.00 in   Overcast
4:31 PM 21.2 °F 3.9 °F 17.6 °F 86% 30.00 in 3.0 mi North 26.5 mph 32.2 mph 0.00 in   Overcast
4:53 PM 21.9 °F 6.2 °F 18.0 °F 85% 30.09 in 2.5 mi North 21.9 mph - 0.00 in   Overcast
5:02 PM 21.2 °F 4.2 °F 17.6 °F 86% 30.03 in 3.0 mi NNW 25.3 mph 32.2 mph 0.00 in   Overcast
5:17 PM 21.2 °F 4.5 °F 17.6 °F 86% 30.03 in 2.5 mi NNW 24.2 mph 33.4 mph 0.00 in   Overcast
5:24 PM 21.2 °F 4.5 °F 17.6 °F 86% 30.04 in 2.0 mi NNW 24.2 mph 33.4 mph 0.00 in Rain Light Freezing Rain
5:53 PM 21.9 °F 5.5 °F 18.0 °F 85% 30.12 in 2.5 mi North 24.2 mph 29.9 mph 0.00 in Rain Light Freezing Rain
6:00 PM 21.2 °F 4.5 °F 17.6 °F 86% 30.03 in 3.0 mi North 24.2 mph 33.4 mph 0.00 in Rain Light Freezing Rain
6:12 PM 21.2 °F 4.5 °F 17.6 °F 86% 30.04 in 2.5 mi North 24.2 mph 29.9 mph 0.00 in   Overcast
6:16 PM 21.2 °F 5.6 °F 17.6 °F 86% 30.04 in 1.8 mi NNW 20.7 mph - 0.00 in Snow Light Snow
6:53 PM 21.0 °F 3.9 °F 17.1 °F 85% 30.17 in 2.5 mi North 25.3 mph 32.2 mph 0.00 in   Overcast
7:01 PM 21.2 °F 4.9 °F 15.8 °F 80% 30.09 in 6.0 mi NNW 23.0 mph 32.2 mph 0.00 in   Haze
7:22 PM 21.2 °F 4.5 °F 17.6 °F 86% 30.05 in 2.0 mi North 24.2 mph - 0.00 in   Overcast
7:53 PM 19.9 °F 2.8 °F 16.0 °F 85% 30.17 in 4.0 mi NNW 24.2 mph 33.4 mph 0.00 in   Overcast
8:53 PM 19.9 °F 4.3 °F 15.1 °F 81% 30.21 in 8.0 mi North 19.6 mph - 0.00 in   Overcast
9:30 PM 19.4 °F 2.1 °F 14.0 °F 80% 30.09 in 8.0 mi NNW 24.2 mph 33.4 mph N/A   Unknown
9:53 PM 19.9 °F 4.8 °F 14.0 °F 78% 30.25 in 6.0 mi NW 18.4 mph 28.8 mph N/A   Unknown
10:00 PM 19.4 °F 2.5 °F 15.8 °F 86% 30.11 in 4.0 mi North 23.0 mph 29.9 mph 0.00 in Snow Light Snow
10:34 PM 19.4 °F - 15.8 °F 86% 30.15 in 2.5 mi North - - 0.00 in Snow Light Snow
10:41 PM 19.4 °F - 15.8 °F 86% 30.15 in - North - - 0.00 in   Unknown
10:53 PM 19.9 °F 3.2 °F 15.1 °F 81% 30.24 in 2.5 mi NNW 23.0 mph 26.5 mph 0.00 in Snow Light Snow
11:08 PM 19.4 °F 2.5 °F 15.8 °F 86% 30.10 in 3.0 mi NNW 23.0 mph 31.1 mph 0.00 in   Unknown
11:16 PM 19.4 °F 2.1 °F 15.8 °F 86% 30.09 in 5.0 mi NNW 24.2 mph 32.2 mph 0.00 in   Overcast
11:53 PM 19.9 °F 3.9 °F 15.1 °F 81% 30.23 in 10.0 mi NNW 20.7 mph 31.1 mph 0.00 in   Overcast